Calgary Springbank, Alberta

1:15 PM MDT on September 29, 2016 (GMT -0600)
Springbank

Weather History for CYBW - March, 2012

Change the Weather History Date:

Friday, March 30, 2012

  Actual Average Record
Temperature  
Mean Temperature 37 °F -  
Max Temperature 53 °F 37 °F 73 °F (2004)
Min Temperature 21 °F 17 °F 3 °F (2009)
Degree Days  
Heating Degree Days 28    
Moisture  
Dew Point 22 °F    
Average Humidity 53    
Maximum Humidity 80    
Minimum Humidity 20    
Precipitation  
Precipitation 0.00 in - - ()
Sea Level Pressure  
Sea Level Pressure 29.37 in    
Wind  
Wind Speed 9 mph ()    
Max Wind Speed 34 mph    
Max Gust Speed 40 mph    
Visibility 18.6 miles    
Events Rain    
Averages and records for this station are not official NWS values.
T = Trace of Precipitation, MM = Missing Value Source: Averaged Metar Reports

Daily Weather History Graph

Daily Weather History Graph

Search for Another Location

Airport or City:

Trip Planner

Search our weather history database for the weather conditions in past years. The results will help you decide how hot, cold, wet, or windy it might be!

Date:

Astronomy

Mar. 30, 2012 Rise Set
Actual Time 7:16 AM MDT 8:08 PM MDT
Civil Twilight 6:42 AM MDT 8:41 PM MDT
Nautical Twilight 6:02 AM MDT 9:22 PM MDT
Astronomical Twilight 5:19 AM MDT 10:05 PM MDT
Moon 11:55 AM MDT (3/30) 3:18 AM MDT (3/30)
Length of Visible Light 13h 58m
Length of Day
12h 51m
Waxing Crescent, 49% of the Moon is Illuminated
Mar 30
Waxing Crescent
Mar 30
First Quarter
Apr 6
Full
Apr 13
Last Quarter
Apr 21
New

Hourly Weather History & Observations

Time (MDT) Temp. Windchill Dew Point Humidity Pressure Visibility Wind Dir Wind Speed Gust Speed Precip Events Conditions
5:00 AM 30.2 °F 25.4 °F 24.8 °F 80% 29.29 in 15.0 mi South 4.6 mph - N/A   Clear
6:00 AM 28 °F - 21 °F 66% 29.31 in 15 mi WSW 6.9 mph - -  
6:00 AM 28.4 °F 21.2 °F 21.2 °F 74% 29.31 in 15.0 mi WSW 6.9 mph - N/A   Clear
7:00 AM 26.6 °F 19.1 °F 21.2 °F 80% 29.30 in 20.0 mi South 6.9 mph - N/A   Partly Cloudy
8:00 AM 30.2 °F - 23.0 °F 75% 29.32 in 20.0 mi Calm Calm - N/A   Scattered Clouds
9:00 AM 37.4 °F - 28.4 °F 70% 29.33 in 30.0 mi Calm Calm - N/A   Mostly Cloudy
10:00 AM 42.8 °F 37.0 °F 26.6 °F 53% 29.33 in 30.0 mi SW 10.4 mph - N/A   Mostly Cloudy
11:00 AM 44.6 °F 38.8 °F 26.6 °F 49% 29.33 in 30.0 mi South 11.5 mph - N/A   Mostly Cloudy
12:00 PM 50 °F - 21 °F 20% 29.29 in 28 mi SW 8.1 mph - -   Scattered Clouds
12:00 PM 50.0 °F - 21.2 °F 32% 29.29 in 30.0 mi SW 10.4 mph - N/A   Mostly Cloudy
1:00 PM 51.8 °F - 17.6 °F 26% 29.30 in 30.0 mi WSW 24.2 mph 29.9 mph N/A   Mostly Cloudy
2:00 PM 41.0 °F 29.1 °F 17.6 °F 39% 29.34 in 20.0 mi NW 34.5 mph 40.3 mph N/A Rain Light Rain Showers
2:01 PM - - - N/A% - 20.0 mi NW 28.8 mph 40.3 mph N/A   Light Small Hail Showers
2:28 PM - - - N/A% - 20.0 mi NNW 16.1 mph 24.2 mph N/A Rain Light Rain Showers
2:43 PM - - - N/A% - 20.0 mi North 9.2 mph - N/A   Mostly Cloudy
3:00 PM 41.0 °F 34.7 °F 28.4 °F 61% 29.40 in 20.0 mi NW 10.4 mph - N/A   Mostly Cloudy
4:00 PM 46.4 °F 40.4 °F 23.0 °F 40% 29.40 in 20.0 mi West 13.8 mph - N/A   Mostly Cloudy
5:00 PM 46.4 °F 38.7 °F 23.0 °F 40% 29.42 in 20.0 mi West 20.7 mph - N/A   Mostly Cloudy
6:00 PM 44 °F - 21 °F 26% 29.44 in 19 mi West 18.4 mph - -   Partly Cloudy
6:00 PM 44.6 °F 36.9 °F 21.2 °F 39% 29.44 in 20.0 mi West 18.4 mph - N/A   Mostly Cloudy
7:00 PM 41.0 °F 32.5 °F 23.0 °F 49% 29.47 in 20.0 mi West 17.3 mph - N/A   Mostly Cloudy
8:00 PM 35.6 °F 26.6 °F 21.2 °F 56% 29.50 in 20.0 mi WSW 13.8 mph - N/A   Partly Cloudy
9:00 PM 28.4 °F 19.1 °F 19.4 °F 69% 29.54 in 15.0 mi WNW 10.4 mph - N/A   Partly Cloudy
10:00 PM 28.4 °F 24.6 °F 19.4 °F 69% 29.46 in 15.0 mi NNW 3.5 mph - N/A   Partly Cloudy